TimeCST,TemperatureF,Dew PointF,Humidity,Sea Level PressureIn,VisibilityMPH,Wind Direction,Wind SpeedMPH,Gust SpeedMPH,PrecipitationIn,Events,Conditions,WindDirDegrees,DateUTC
12:53 AM,48.9,42.1,77,29.78,8.0,SSE,11.5,21.9,N/A,,Scattered Clouds,160,2011-11-06 05:53:00
1:12 AM,48.2,42.8,82,29.77,8.0,South,15.0,20.7,N/A,,Mostly Cloudy,170,2011-11-06 06:12:00
1:53 AM,48.9,42.1,77,29.80,8.0,South,10.4,18.4,N/A,,Overcast,180,2011-11-06 06:53:00
1:53 AM,48.0,42.1,80,29.77,7.0,South,10.4,20.7,N/A,,Mostly Cloudy,180,2011-11-06 07:53:00
2:22 AM,48.2,42.8,82,29.74,7.0,South,11.5,-,N/A,,Scattered Clouds,170,2011-11-06 08:22:00
2:29 AM,48.2,42.8,82,29.75,7.0,South,8.1,-,N/A,,Mostly Cloudy,190,2011-11-06 08:29:00
2:53 AM,46.9,42.1,83,29.76,7.0,South,10.4,-,N/A,,Overcast,170,2011-11-06 08:53:00
3:16 AM,46.4,41.0,81,29.73,7.0,South,10.4,18.4,N/A,,Partly Cloudy,180,2011-11-06 09:16:00
3:53 AM,46.9,42.1,83,29.73,7.0,South,8.1,-,N/A,,Mostly Cloudy,180,2011-11-06 09:53:00
4:53 AM,48.0,42.1,80,29.71,8.0,South,11.5,19.6,N/A,,Overcast,170,2011-11-06 10:53:00
5:53 AM,48.0,42.1,80,29.69,8.0,South,10.4,16.1,N/A,,Overcast,180,2011-11-06 11:53:00
6:53 AM,48.0,42.1,80,29.68,8.0,South,10.4,23.0,N/A,,Overcast,180,2011-11-06 12:53:00
7:53 AM,48.9,42.1,77,29.67,7.0,South,15.0,21.9,N/A,,Overcast,170,2011-11-06 13:53:00
9:53 AM,50.0,43.0,77,29.63,8.0,South,13.8,27.6,N/A,,Overcast,180,2011-11-06 15:53:00
10:53 AM,51.1,43.0,74,29.63,8.0,South,13.8,23.0,N/A,,Overcast,180,2011-11-06 16:53:00
11:53 AM,51.1,44.1,77,29.62,8.0,South,13.8,23.0,N/A,,Overcast,180,2011-11-06 17:53:00
12:53 PM,53.1,43.0,69,29.61,10.0,SSW,12.7,25.3,N/A,,Overcast,200,2011-11-06 18:53:00
1:01 PM,53.6,42.8,67,29.59,10.0,SSW,10.4,25.3,N/A,,Overcast,200,2011-11-06 19:01:00
1:10 PM,53.6,42.8,67,29.58,10.0,SSW,16.1,28.8,N/A,,Overcast,200,2011-11-06 19:10:00
1:53 PM,53.1,43.0,69,29.61,10.0,SSW,15.0,27.6,N/A,,Overcast,200,2011-11-06 19:53:00
2:53 PM,53.1,41.0,64,29.65,10.0,SW,11.5,26.5,N/A,,Overcast,220,2011-11-06 20:53:00
3:53 PM,48.9,35.1,59,29.72,10.0,SW,9.2,24.2,N/A,,Mostly Cloudy,230,2011-11-06 21:53:00
4:53 PM,46.9,33.1,59,29.75,10.0,SW,6.9,19.6,N/A,,Partly Cloudy,230,2011-11-06 22:53:00
5:53 PM,46.0,32.0,58,29.79,10.0,SW,8.1,-,N/A,,Clear,220,2011-11-06 23:53:00
6:53 PM,45.0,30.9,58,29.81,10.0,Variable,6.9,-,N/A,,Clear,0,2011-11-07 00:53:00
7:53 PM,44.1,30.0,58,29.84,10.0,SW,6.9,-,N/A,,Clear,230,2011-11-07 01:53:00
8:53 PM,44.1,28.0,53,29.88,10.0,SW,11.5,19.6,N/A,,Clear,230,2011-11-07 02:53:00
9:53 PM,43.0,27.0,53,29.90,10.0,Variable,6.9,-,N/A,,Clear,0,2011-11-07 03:53:00
10:53 PM,43.0,26.1,51,29.91,10.0,SW,8.1,16.1,N/A,,Clear,220,2011-11-07 04:53:00